Weather History for CYUY - January, 2013

Change the Weather History Date:

Saturday, January 12, 2013

  Actual Average (CYVO) Record (CYVO)
Temperature  
Mean Temperature 38 °F -  
Max Temperature 42 °F 9 °F 41 °F (2013)
Min Temperature 33 °F -7 °F -25 °F (1999)
Degree Days  
Heating Degree Days 28    
Moisture  
Dew Point 37 °F    
Average Humidity 98    
Maximum Humidity 100    
Minimum Humidity 93    
Precipitation  
Precipitation 0.00 in - - ()
Sea Level Pressure  
Sea Level Pressure 29.73 in    
Wind  
Wind Speed 9 mph ()    
Max Wind Speed 16 mph    
Max Gust Speed 24 mph    
Visibility 4.3 miles    
Events Rain    
Averages and records for this station are not official NWS values.
T = Trace of Precipitation, MM = Missing Value Source: Averaged Metar Reports

Daily Weather History Graph

Daily Weather History Graph

Search for Another Location

Airport or City:

Trip Planner

Search our weather history database for the weather conditions in past years. The results will help you decide how hot, cold, wet, or windy it might be!

Date:

Astronomy

Jan. 12, 2013 Rise Set
Actual Time 9:02 AM AST 5:45 PM AST
Civil Twilight 8:27 AM AST 6:20 PM AST
Nautical Twilight 7:48 AM AST 6:59 PM AST
Astronomical Twilight 7:10 AM AST 7:37 PM AST
Moon 9:12 AM AST (1/12) 7:21 PM AST (1/12)
Length of Visible Light 9h 53m
Length of Day
8h 42m
New Moon, 1% of the Moon is Illuminated
Jan 12
New Moon
Jan 18
First Quarter
Jan 27
Full
Feb 3
Last Quarter
Feb 10
New

Hourly Weather History & Observations

Time (AST) Temp. Windchill Dew Point Humidity Pressure Visibility Wind Dir Wind Speed Gust Speed Precip Events Conditions
12:00 AM 33.8 °F 25.8 °F 32.0 °F 93% 29.77 in 1.5 mi South 10.4 mph - N/A   Light Drizzle
12:38 AM 33.8 °F 25.8 °F 33.8 °F 100% 29.77 in 2.5 mi South 10.4 mph - N/A   Light Drizzle
1:00 AM 33.8 °F 25.3 °F 33.8 °F 100% 29.76 in 5.0 mi South 11.5 mph - N/A   Light Drizzle
1:28 AM 33.8 °F 26.4 °F 33.8 °F 100% 29.75 in 5.0 mi South 9.2 mph 18.4 mph N/A Rain Light Rain Showers
1:51 AM 33.8 °F 25.8 °F 33.8 °F 100% 29.75 in 3.0 mi South 10.4 mph - N/A   Light Drizzle
2:00 AM 33.8 °F 26.4 °F 33.8 °F 100% 29.75 in 3.0 mi South 9.2 mph - N/A   Light Drizzle
2:33 AM 33.8 °F 27.0 °F 33.8 °F 100% 29.76 in 2.2 mi South 8.1 mph - N/A   Light Drizzle
3:00 AM 33.8 °F 27.0 °F 33.8 °F 100% 29.76 in 2.2 mi South 8.1 mph - N/A   Light Drizzle
3:20 AM 33.8 °F 25.3 °F 33.8 °F 100% 29.78 in 2.0 mi SSW 11.5 mph - N/A   Overcast
4:00 AM 33.8 °F 27.0 °F 33.8 °F 100% 29.78 in 2.2 mi South 8.1 mph - N/A   Overcast
4:05 AM 33.8 °F 27.0 °F 33.8 °F 100% 29.78 in 2.0 mi South 8.1 mph - N/A   Light Drizzle
4:48 AM 33.8 °F 27.0 °F 33.8 °F 100% 29.76 in 0.8 mi South 8.1 mph - N/A   Mist
5:00 AM 33.8 °F 27.7 °F 33.8 °F 100% 29.76 in 0.8 mi South 6.9 mph - N/A   Mist
5:25 AM 35.6 °F 28.0 °F 33.8 °F 93% 29.74 in 1.5 mi South 10.4 mph - N/A   Overcast
6:00 AM 35.6 °F 28.6 °F 35.6 °F 100% 29.72 in 2.5 mi South 9.2 mph - N/A   Overcast
7:00 AM 37.4 °F 32.1 °F 35.6 °F 93% 29.73 in 2.5 mi South 6.9 mph - N/A   Overcast
7:50 AM 37.4 °F 31.4 °F 37.4 °F 100% 29.74 in 1.2 mi South 8.1 mph - N/A   Overcast
8:00 AM 37.4 °F 32.1 °F 37.4 °F 100% 29.74 in 1.0 mi South 6.9 mph - N/A   Overcast
8:49 AM 37.4 °F 30.3 °F 37.4 °F 100% 29.74 in 0.8 mi South 10.4 mph - N/A   Mist
9:00 AM 37.4 °F 30.3 °F 37.4 °F 100% 29.74 in 1.2 mi South 10.4 mph - N/A   Mist
10:00 AM 39.2 °F 33.0 °F 39.2 °F 100% 29.74 in 1.5 mi SSW 9.2 mph - N/A   Overcast
11:00 AM 39.2 °F 32.0 °F 39.2 °F 100% 29.73 in 1.5 mi South 11.5 mph - N/A   Overcast
12:00 PM 39.2 °F 31.6 °F 39.2 °F 100% 29.70 in 1.8 mi South 12.7 mph - N/A   Light Drizzle
1:00 PM 41.0 °F 33.9 °F 41.0 °F 100% 29.66 in 1.8 mi South 12.7 mph 20.7 mph N/A   Overcast
2:00 PM 42.8 °F 35.4 °F 42.8 °F 100% 29.64 in 2.0 mi SSW 15.0 mph 23.0 mph N/A   Overcast
3:00 PM 42.8 °F 35.1 °F 42.8 °F 100% 29.65 in 2.0 mi SSW 16.1 mph 24.2 mph N/A   Light Drizzle
4:00 PM 42.8 °F 35.1 °F 42.8 °F 100% 29.65 in 2.0 mi SSW 16.1 mph - N/A   Light Drizzle
5:00 PM 42.8 °F 35.4 °F 41.0 °F 93% 29.68 in 5.0 mi SW 15.0 mph - N/A   Mostly Cloudy
6:00 PM 41.0 °F 33.9 °F 39.2 °F 93% 29.68 in 10.0 mi SSW 12.7 mph 18.4 mph N/A   Scattered Clouds
7:00 PM 41.0 °F 34.3 °F 39.2 °F 93% 29.71 in 15.0 mi SSW 11.5 mph - N/A   Partly Cloudy
8:00 PM 41.0 °F 34.3 °F 39.2 °F 93% 29.73 in 15.0 mi SSW 11.5 mph - N/A   Partly Cloudy
9:00 PM 41.0 °F 34.7 °F 39.2 °F 93% 29.73 in 15.0 mi SSW 10.4 mph 17.3 mph N/A   Mostly Cloudy
10:00 PM 41.0 °F 35.2 °F 39.2 °F 93% 29.78 in 15.0 mi SW 9.2 mph - N/A   Mostly Cloudy
11:00 PM 39.2 °F 31.2 °F 37.4 °F 93% 29.81 in 15.0 mi SW 13.8 mph - N/A   Mostly Cloudy